sat.trackr.live / text

‹ back to catalog

CENTISPACE-1 S6

NORAD 54021 · 2022-126B

PAYLOAD ACTIVE UNKNOWN

§ Identity

Operator
Country
PRC
Launch date
2022-10-07
Launch site
SEAL
Launch vehicle
Mass (kg)
RCS (m²)

External: N2YO · Heavens-Above · Gunter

§ Orbital elements

Epoch: 2026-09-20T21:49:57.067392Z

Period
98.47 min
Inclination
54.9990°
Eccentricity
0.0011819
Mean motion
14.62388431 rev/d
Perigee alt
677.1 km
Apogee alt
693.8 km
Semi-major
7,063.6 km
B*
9.3593e-5
RAAN
192.1872°
Arg perigee
288.9222°
Mean anomaly
71.0490°
Rev number
21,100

§ Raw data

CENTISPACE-1 S61 54021U 22126B   26263.90968828  .00000289  00000+0  93593-4 0  99952 54021  54.9990 192.1872 0011819 288.9222  71.0490 14.62388431211008

JSON: /api/v1/satellites/54021 · /tle

For live sub-satellite position, see the globe view (requires WebGL).

§ Visibility from observer

Set your observer location to see the next 7 days of passes ≥ 10°. The values pass through the URL so the page stays shareable.

No JS? Fill the form by hand. The geolocation button needs JavaScript.

§ Radio — SatNOGS DB

ModeDescriptionDownlinkUplink
FM GNSS B1C 1.575 GHz
FM GNSS B2A 1.176 GHz
FM Telemetry 2.210 GHz

3 transmitters · refreshed weekly from db.satnogs.org